#timestamp,LO_Frequency,Hit,StdDev 
1560679215.3,286047003.5,N
1560679235.1,286047001.5,N
1560679255.9,286047002.1,N
1560679275.7,286047002.7,N
1560679295.6,286047002.8,N
1560679315.4,286047002.7,N
1560679335.2,286047004.3,N
1560679355.1,286047001.8,N
1560679356.0,286047001.8,N
1560679375.8,286047002.6,N
1560679395.6,286047002.5,N
1560679415.5,286047002.7,N
1560679435.3,286047002.6,N
1560679455.2,286046999.8,N
1560679475.9,286046999.7,N
1560679495.7,286047000.2,N
1560679515.6,286047002.2,N
1560679535.4,286047002.4,N
1560679555.2,286047002.4,N
1560679575.1,286047002.7,N
1560679576.0,286047002.7,N
1560679595.8,286047002.4,N
1560679615.7,286047002.0,N
1560679635.5,286047002.4,N
1560679655.3,286047002.2,N
1560679675.2,286047002.8,N
1560679695.0,286047001.5,N
1560679695.9,286047001.5,N
1560679715.7,286047001.8,N
1560679735.6,286047001.3,N
1560679755.4,286047003.8,Y
1560679775.3,286047000.0,P
1560679795.1,286047000.5,N
1560679815.8,286046999.9,N
1560679835.7,286046999.8,N
1560679855.5,286047000.4,N
1560679875.3,286046998.2,N
1560679895.2,286046998.4,N
1560679915.0,286046998.6,N
1560679915.9,286046998.6,N
1560679935.8,286047002.0,N
1560679955.6,286047002.4,N
1560679975.4,286047002.3,N
1560679995.3,286047002.7,N
1560680015.1,286047002.4,N
1560680035.8,286047002.3,N
1560680055.7,286047001.6,N
1560680075.5,286047002.6,N
1560680095.4,286047000.2,N
1560680115.2,286047000.5,N
1560680135.0,286046999.8,N
1560680135.9,286046999.8,N
1560680155.8,286047000.0,N
1560680175.6,286047002.7,N
1560680195.5,286047002.4,N
1560680215.3,286047000.5,N
1560680235.1,286047000.1,N
1560680255.9,286047001.8,N
1560680275.7,286047002.0,N
1560680295.7,286047003.5,N
1560680315.5,286047001.4,N
1560680335.3,286047001.8,N
1560680355.2,286047004.0,N
1560680375.9,286047001.7,N
1560680395.7,286047001.6,N
1560680415.6,286047003.2,N
1560680435.4,286047005.3,Y
1560680455.3,286047004.4,P
1560680475.1,286047002.1,N
1560680495.8,286047001.6,N
1560680515.7,286047002.3,N
1560680535.5,286047002.7,N
1560680555.4,286047000.0,N
1560680575.2,286047000.1,N
1560680595.0,286047002.6,N
1560680595.9,286047002.6,N
1560680615.8,286047001.8,N
1560680635.6,286047001.8,N
1560680655.4,286047002.1,N
1560680675.3,286047000.3,N
1560680695.1,286047002.8,N
1560680715.9,286047002.5,N
1560680735.7,286047001.6,N
1560680755.5,286047001.8,N
1560680775.4,286047002.1,N
1560680795.2,286047000.8,N
1560680815.1,286046998.2,N
1560680816.0,286046998.2,N
1560680835.8,286047000.8,N
1560680855.6,286047002.7,N
1560680875.5,286047001.9,N
1560680895.3,286047001.5,N
1560680915.1,286047001.8,N
1560680935.9,286047001.3,N
1560680955.7,286047001.4,N
1560680975.6,286047001.4,N
1560680995.4,286047001.7,N
1560681015.2,286047003.6,N
1560681035.1,286047001.5,N
1560681036.0,286047001.5,N
1560681055.8,286046999.8,N
1560681075.7,286047000.0,N
1560681095.5,286047002.8,N
1560681115.3,286047002.4,N
1560681135.2,286047000.1,N
1560681155.0,286047000.1,N
1560681155.9,286047000.1,N
1560681175.8,286046999.9,N
1560681195.6,286047000.0,N
1560681215.4,286047000.6,N
1560681235.3,286047000.9,N
1560681255.1,286047000.7,N
1560681275.8,286047000.9,N
1560681295.7,286047000.7,N
1560681315.5,286046998.2,N
1560681335.4,286046998.4,N
1560681355.2,286046999.3,N
1560681375.0,286046998.4,N
1560681375.9,286046998.4,N
1560681395.8,286046998.6,N
1560681415.6,286046998.8,N
1560681435.4,286046999.4,N
1560681455.3,286046997.0,N
1560681475.1,286046999.5,N
1560681495.9,286046999.6,N
1560681515.7,286046996.7,N
1560681535.5,286046998.7,N
1560681555.4,286046998.3,N
1560681575.2,286047001.0,N
1560681595.0,286047001.2,N
1560681595.9,286047001.2,N
1560681615.8,286047001.2,N
1560681635.6,286047001.2,N
1560681655.5,286047001.2,N
1560681675.3,286046999.1,N
1560681695.1,286046996.9,N
1560681715.9,286046998.0,N
1560681735.7,286046995.1,Y
1560681755.5,286046997.4,P
1560681775.4,286046997.0,N
1560681795.2,286046995.7,P
1560681815.1,286046995.6,Y
1560681816.0,286046995.6,P
1560681835.8,286046998.8,N
1560681855.6,286046999.9,N
1560681875.5,286047000.3,N
1560681895.3,286046999.9,N
1560681915.1,286047000.3,N
1560681935.9,286047000.1,N
1560681955.7,286047002.7,N
1560681975.6,286047000.0,N
1560681995.4,286046999.7,N
1560682015.2,286047002.3,N
1560682035.1,286047002.7,N
1560682036.0,286047002.7,N
1560682055.8,286047001.8,N
1560682075.6,286047004.0,N
1560682095.5,286047001.4,N
1560682115.3,286047002.5,N
1560682135.2,286047001.6,N
1560682155.9,286047001.3,N
1560682175.7,286047001.3,N
1560682195.6,286047001.5,N
1560682215.4,286047001.3,N
1560682235.2,286047001.3,N
1560682255.1,286047004.3,N
1560682256.0,286047004.3,N
1560682275.8,286047002.4,N
1560682295.7,286047002.6,N
1560682315.5,286047001.9,N
1560682335.3,286047000.2,N
1560682355.2,286047000.3,N
1560682375.0,286047000.0,N
1560682375.9,286047000.0,N
1560682395.7,286046999.7,N
1560682415.6,286047002.6,N
1560682435.4,286047001.8,N
1560682455.3,286047001.9,N
1560682475.1,286047001.7,N
1560682476.0,286047001.7,N
1560682495.8,286047001.3,N
1560682515.7,286047004.0,Y
1560682535.5,286047002.6,P
1560682555.4,286047000.1,N
1560682575.2,286047000.2,N
1560682595.0,286047004.0,Y
1560682595.9,286047004.0,P
1560682615.8,286046999.8,N
1560682635.6,286047002.5,N
1560682655.4,286047002.2,N
1560682675.3,286046999.8,N
1560682695.1,286047002.2,N
1560682715.9,286047003.1,N
1560682735.7,286047004.8,Y
1560682755.5,286047001.9,P
1560682775.4,286047002.3,P
1560682795.2,286046999.8,N
